UAL1861 KIAH-MMVR

Flight info

Callsign UAL1861
Flight time 1h 51m
Altitude 34000
Route RITAA7 WWREN DCT BRO/N0478F350 DCT IPRUL UT48 AVALI UT61 DURIB DURIB1A
Aircraft B763/H-SDE3FGHIM3RWXY/LB1

Departure

Time 2026-04-21 22:37
Airport George Bush Intercontinental Airport (KIAH)

Arrival

Time 2026-04-22 00:29
Airport General Heriberto Jara International Airport (MMVR)
Time Latitude Longitude Altitude Speed Heading
2026-04-21 22:16 29.98930 -95.33798 103 ft 0 kts 279°
2026-04-21 22:27 29.98929 -95.33791 103 ft 2 kts 279°
2026-04-21 22:27 29.98927 -95.33774 103 ft 2 kts 279°
2026-04-21 22:27 29.98925 -95.33757 103 ft 2 kts 277°
2026-04-21 22:28 29.98923 -95.33740 103 ft 2 kts 289°
2026-04-21 22:28 29.98915 -95.33727 103 ft 2 kts 331°
2026-04-21 22:28 29.98904 -95.33723 103 ft 0 kts
2026-04-21 22:28 29.98916 -95.33723 103 ft 3 kts 359°
2026-04-21 22:29 29.98943 -95.33722 103 ft 3 kts
2026-04-21 22:29 29.98970 -95.33721 103 ft 3 kts
2026-04-21 22:29 29.98997 -95.33720 103 ft 3 kts
2026-04-21 22:29 29.99013 -95.33720 103 ft 0 kts
2026-04-21 22:31 29.99016 -95.33720 103 ft 3 kts
2026-04-21 22:31 29.99078 -95.33740 103 ft 13 kts 313°
2026-04-21 22:31 29.99089 -95.33882 103 ft 20 kts 268°
2026-04-21 22:31 29.99088 -95.34042 103 ft 20 kts 270°
2026-04-21 22:32 29.99089 -95.34204 103 ft 20 kts 270°
2026-04-21 22:32 29.99089 -95.34367 103 ft 20 kts 270°
2026-04-21 22:32 29.99089 -95.34557 103 ft 29 kts 271°
2026-04-21 22:32 29.99092 -95.34801 103 ft 30 kts 270°
2026-04-21 22:33 29.99088 -95.35051 100 ft 31 kts 269°
2026-04-21 22:33 29.99084 -95.35299 102 ft 30 kts 270°
2026-04-21 22:33 29.99084 -95.35512 102 ft 24 kts 269°
2026-04-21 22:33 29.99089 -95.35710 102 ft 24 kts 273°
2026-04-21 22:34 29.99092 -95.35901 103 ft 20 kts 259°
2026-04-21 22:34 29.99064 -95.35986 103 ft 8 kts 240°
2026-04-21 22:34 29.98995 -95.36031 103 ft 13 kts 168°
2026-04-21 22:34 29.98902 -95.35982 101 ft 16 kts 164°
2026-04-21 22:35 29.98832 -95.36012 100 ft 5 kts 238°
2026-04-21 22:35 29.98830 -95.36018 100 ft 0 kts 239°
2026-04-21 22:36 29.98829 -95.36018 100 ft 0 kts 239°
2026-04-21 22:36 29.98810 -95.36055 101 ft 13 kts 239°
2026-04-21 22:37 29.98735 -95.36107 101 ft 13 kts 167°
2026-04-21 22:37 29.98531 -95.35986 100 ft 72 kts 151°
2026-04-21 22:37 29.97805 -95.35539 158 ft 155 kts 150°
2026-04-21 22:37 29.96820 -95.34830 951 ft 175 kts 137°
2026-04-21 22:38 29.96060 -95.33878 2203 ft 156 kts 128°
2026-04-21 22:38 29.95431 -95.33015 3097 ft 149 kts 131°
2026-04-21 22:38 29.94701 -95.32025 3497 ft 175 kts 131°
2026-04-21 22:38 29.93865 -95.30875 3919 ft 201 kts 131°
2026-04-21 22:39 29.92880 -95.29515 3896 ft 235 kts 130°
2026-04-21 22:39 29.91808 -95.28027 3971 ft 247 kts 130°
2026-04-21 22:39 29.90696 -95.26479 4171 ft 255 kts 130°
2026-04-21 22:39 29.89547 -95.24878 5083 ft 266 kts 131°
2026-04-21 22:40 29.88410 -95.23213 6342 ft 272 kts 128°
2026-04-21 22:40 29.87304 -95.21425 7400 ft 283 kts 128°
2026-04-21 22:40 29.86150 -95.19572 8455 ft 293 kts 128°
2026-04-21 22:40 29.84948 -95.17645 9486 ft 303 kts 128°
2026-04-21 22:41 29.83708 -95.15655 10513 ft 311 kts 128°
2026-04-21 22:41 29.82387 -95.13669 11283 ft 326 kts 137°
2026-04-21 22:41 29.80560 -95.11919 11607 ft 356 kts 147°
2026-04-21 22:41 29.78367 -95.10433 11923 ft 382 kts 161°
2026-04-21 22:42 29.75739 -95.09673 12641 ft 392 kts 179°
2026-04-21 22:42 29.73057 -95.09776 13684 ft 392 kts 194°
2026-04-21 22:42 29.70461 -95.10691 14689 ft 391 kts 209°
2026-04-21 22:42 29.68104 -95.12272 15666 ft 392 kts 220°
2026-04-21 22:43 29.66073 -95.14333 16625 ft 392 kts 231°
2026-04-21 22:43 29.64346 -95.16724 17509 ft 396 kts 234°
2026-04-21 22:43 29.62484 -95.19119 18426 ft 402 kts 230°
2026-04-21 22:43 29.60556 -95.21405 19268 ft 408 kts 227°
2026-04-21 22:44 29.58309 -95.23497 20069 ft 419 kts 217°
2026-04-21 22:44 29.55742 -95.25115 20881 ft 427 kts 210°
2026-04-21 22:44 29.53074 -95.26601 21598 ft 432 kts 211°
2026-04-21 22:44 29.50361 -95.28134 22337 ft 436 kts 211°
2026-04-21 22:45 29.47650 -95.29659 23015 ft 440 kts 211°
2026-04-21 22:45 29.44871 -95.31220 23664 ft 445 kts 211°
2026-04-21 22:45 29.42088 -95.32780 24351 ft 448 kts 211°
2026-04-21 22:45 29.39273 -95.34358 24996 ft 451 kts 211°
2026-04-21 22:46 29.36463 -95.35933 25599 ft 455 kts 212°
2026-04-21 22:46 29.33586 -95.37543 26241 ft 457 kts 212°
2026-04-21 22:46 29.30731 -95.39141 26735 ft 461 kts 212°
2026-04-21 22:46 29.27790 -95.40785 27273 ft 464 kts 212°
2026-04-21 22:47 29.24874 -95.42415 27737 ft 467 kts 212°
2026-04-21 22:47 29.21947 -95.44049 28145 ft 470 kts 212°
2026-04-21 22:47 29.18996 -95.45695 28687 ft 469 kts 212°
2026-04-21 22:47 29.16045 -95.47339 29255 ft 467 kts 213°
2026-04-21 22:48 29.13121 -95.48968 29795 ft 466 kts 213°
2026-04-21 22:48 29.10213 -95.50589 30387 ft 462 kts 213°
2026-04-21 22:48 29.07274 -95.52225 30951 ft 460 kts 213°
2026-04-21 22:48 29.04421 -95.53812 31515 ft 457 kts 213°
2026-04-21 22:49 29.01571 -95.55399 31943 ft 456 kts 212°
2026-04-21 22:49 28.98695 -95.56996 32433 ft 454 kts 212°
2026-04-21 22:49 28.95865 -95.58568 32815 ft 454 kts 213°
2026-04-21 22:49 28.93032 -95.60140 33268 ft 451 kts 213°
2026-04-21 22:50 28.90235 -95.61697 33604 ft 451 kts 213°
2026-04-21 22:50 28.87463 -95.63423 34024 ft 446 kts 216°
2026-04-21 22:50 28.82068 -95.66829 34130 ft 444 kts 215°
2026-04-21 22:51 28.76663 -95.70229 34126 ft 444 kts 215°
2026-04-21 22:51 28.71253 -95.73628 34120 ft 444 kts 215°
2026-04-21 22:52 28.65821 -95.77034 34123 ft 444 kts 215°
2026-04-21 22:52 28.60428 -95.80411 34121 ft 443 kts 215°
2026-04-21 22:53 28.55019 -95.83798 34119 ft 450 kts 215°
2026-04-21 22:53 28.49451 -95.87276 34114 ft 456 kts 215°
2026-04-21 22:54 28.43922 -95.90724 34111 ft 454 kts 215°
2026-04-21 22:54 28.38368 -95.94186 34108 ft 454 kts 215°
2026-04-21 22:55 28.32828 -95.97636 34104 ft 455 kts 215°
2026-04-21 22:55 28.27313 -96.01065 34104 ft 453 kts 215°
2026-04-21 22:56 28.21741 -96.04527 34102 ft 454 kts 215°
2026-04-21 22:56 28.16234 -96.07941 34097 ft 453 kts 215°
2026-04-21 22:57 28.10650 -96.11336 34097 ft 455 kts 214°
2026-04-21 22:57 28.05055 -96.14638 34090 ft 454 kts 214°
2026-04-21 22:58 27.99454 -96.17943 34087 ft 453 kts 214°
2026-04-21 22:58 27.93886 -96.21225 34085 ft 453 kts 214°
2026-04-21 22:59 27.88283 -96.24525 34083 ft 454 kts 214°
2026-04-21 22:59 27.82688 -96.27814 34074 ft 453 kts 214°
2026-04-21 23:00 27.77080 -96.31107 34076 ft 452 kts 214°
2026-04-21 23:00 27.71535 -96.34361 34075 ft 452 kts 214°
2026-04-21 23:01 27.65954 -96.37632 34073 ft 452 kts 214°
2026-04-21 23:01 27.60365 -96.40903 34072 ft 451 kts 214°
2026-04-21 23:02 27.54826 -96.44141 34069 ft 450 kts 214°
2026-04-21 23:02 27.49261 -96.47392 34068 ft 451 kts 214°
2026-04-21 23:03 27.43695 -96.50637 34067 ft 450 kts 214°
2026-04-21 23:03 27.38138 -96.53875 34065 ft 449 kts 214°
2026-04-21 23:04 27.32590 -96.57104 34064 ft 449 kts 214°
2026-04-21 23:04 27.27042 -96.60330 34063 ft 449 kts 214°
2026-04-21 23:05 27.21468 -96.63567 34062 ft 449 kts 214°
2026-04-21 23:05 27.15935 -96.66775 34079 ft 448 kts 214°
2026-04-21 23:06 27.10356 -96.70008 34074 ft 449 kts 214°
2026-04-21 23:06 27.04838 -96.73202 34077 ft 448 kts 214°
2026-04-21 23:07 26.99286 -96.76411 34074 ft 448 kts 214°
2026-04-21 23:07 26.93730 -96.79619 34072 ft 448 kts 214°
2026-04-21 23:08 26.88184 -96.82818 34069 ft 448 kts 214°
2026-04-21 23:08 26.82673 -96.85993 34070 ft 447 kts 214°
2026-04-21 23:09 26.77138 -96.89178 34066 ft 447 kts 214°
2026-04-21 23:09 26.71591 -96.92368 34066 ft 446 kts 214°
2026-04-21 23:10 26.66087 -96.95528 34060 ft 446 kts 214°
2026-04-21 23:10 26.60575 -96.98689 34055 ft 446 kts 214°
2026-04-21 23:11 26.55012 -97.01878 34062 ft 447 kts 214°
2026-04-21 23:11 26.49497 -97.05034 34050 ft 446 kts 214°
2026-04-21 23:12 26.43992 -97.08180 34054 ft 445 kts 214°
2026-04-21 23:12 26.38477 -97.11331 34059 ft 446 kts 214°
2026-04-21 23:13 26.32953 -97.14482 34047 ft 446 kts 214°
2026-04-21 23:13 26.27441 -97.17623 34046 ft 445 kts 214°
2026-04-21 23:14 26.21900 -97.20778 34044 ft 446 kts 214°
2026-04-21 23:14 26.16362 -97.23927 34043 ft 447 kts 214°
2026-04-21 23:15 26.10859 -97.27053 34046 ft 446 kts 214°
2026-04-21 23:15 26.05308 -97.30203 34045 ft 445 kts 214°
2026-04-21 23:16 25.99824 -97.33312 34043 ft 444 kts 214°
2026-04-21 23:16 25.94218 -97.36221 34040 ft 453 kts 205°
2026-04-21 23:17 25.91078 -97.37067 34048 ft 464 kts 196°
2026-04-21 23:17 25.87842 -97.37341 34057 ft 474 kts 188°
2026-04-21 23:17 25.81192 -97.37249 34036 ft 476 kts 187°
2026-04-21 23:18 25.74615 -97.37122 34038 ft 475 kts 187°
2026-04-21 23:18 25.67943 -97.36980 34039 ft 476 kts 187°
2026-04-21 23:19 25.61324 -97.36835 34025 ft 476 kts 187°
2026-04-21 23:19 25.54611 -97.36687 34030 ft 476 kts 187°
2026-04-21 23:20 25.47980 -97.36541 34028 ft 476 kts 186°
2026-04-21 23:20 25.41379 -97.36395 34029 ft 477 kts 187°
2026-04-21 23:21 25.34754 -97.36248 34025 ft 476 kts 186°
2026-04-21 23:21 25.28083 -97.36101 34027 ft 477 kts 186°
2026-04-21 23:22 25.21464 -97.35955 34025 ft 478 kts 186°
2026-04-21 23:22 25.14808 -97.35809 34029 ft 478 kts 186°
2026-04-21 23:23 25.08188 -97.35662 34029 ft 475 kts 186°
2026-04-21 23:23 25.01566 -97.35518 34030 ft 478 kts 186°
2026-04-21 23:24 24.94890 -97.35371 34031 ft 477 kts 186°
2026-04-21 23:24 24.88270 -97.35226 34029 ft 476 kts 186°
2026-04-21 23:25 24.81593 -97.35080 34025 ft 478 kts 186°
2026-04-21 23:25 24.74959 -97.34934 34022 ft 477 kts 186°
2026-04-21 23:26 24.68322 -97.34789 34021 ft 476 kts 186°
2026-04-21 23:26 24.61674 -97.34644 34021 ft 476 kts 186°
2026-04-21 23:27 24.55064 -97.34500 34023 ft 476 kts 186°
2026-04-21 23:27 24.48419 -97.33828 34025 ft 482 kts 179°
2026-04-21 23:28 24.41755 -97.32900 34019 ft 482 kts 179°
2026-04-21 23:28 24.35075 -97.31955 34016 ft 484 kts 179°
2026-04-21 23:29 24.28390 -97.31005 34014 ft 482 kts 179°
2026-04-21 23:29 24.21728 -97.30058 34015 ft 483 kts 179°
2026-04-21 23:30 24.15064 -97.29113 34011 ft 483 kts 179°
2026-04-21 23:30 24.08425 -97.28170 34018 ft 483 kts 179°
2026-04-21 23:31 24.01729 -97.27222 34011 ft 482 kts 178°
2026-04-21 23:31 23.95098 -97.26283 34016 ft 479 kts 179°
2026-04-21 23:32 23.88466 -97.25346 34013 ft 484 kts 178°
2026-04-21 23:32 23.81743 -97.24396 34016 ft 485 kts 179°
2026-04-21 23:33 23.75055 -97.23451 34019 ft 483 kts 179°
2026-04-21 23:33 23.68380 -97.22510 34022 ft 483 kts 178°
2026-04-21 23:34 23.61703 -97.21571 34018 ft 483 kts 179°
2026-04-21 23:34 23.55042 -97.20634 34022 ft 484 kts 178°
2026-04-21 23:35 23.48345 -97.19692 34019 ft 484 kts 178°
2026-04-21 23:35 23.41642 -97.18752 34021 ft 484 kts 178°
2026-04-21 23:36 23.34981 -97.17818 34025 ft 485 kts 178°
2026-04-21 23:36 23.28271 -97.16878 34022 ft 487 kts 178°
2026-04-21 23:37 23.21510 -97.15930 34023 ft 487 kts 178°
2026-04-21 23:37 23.14797 -97.14991 34023 ft 487 kts 178°
2026-04-21 23:38 23.08074 -97.14052 34023 ft 486 kts 178°
2026-04-21 23:38 23.01359 -97.13115 34025 ft 486 kts 178°
2026-04-21 23:39 22.94624 -97.12177 34024 ft 487 kts 178°
2026-04-21 23:39 22.87902 -97.11242 34021 ft 488 kts 178°
2026-04-21 23:40 22.81144 -97.10302 34018 ft 488 kts 178°
2026-04-21 23:40 22.74412 -97.09366 34024 ft 487 kts 178°
2026-04-21 23:41 22.67695 -97.08434 34023 ft 488 kts 178°
2026-04-21 23:41 22.60947 -97.07499 34016 ft 487 kts 178°
2026-04-21 23:42 22.54211 -97.06566 34019 ft 488 kts 178°
2026-04-21 23:42 22.47459 -97.05631 34012 ft 487 kts 178°
2026-04-21 23:43 22.40745 -97.04703 34008 ft 487 kts 177°
2026-04-21 23:43 22.33971 -97.03767 34006 ft 488 kts 177°
2026-04-21 23:44 22.27248 -97.02840 34005 ft 487 kts 177°
2026-04-21 23:44 22.20502 -97.01910 34008 ft 488 kts 177°
2026-04-21 23:45 22.10428 -97.00523 34008 ft 487 kts 177°
2026-04-21 23:46 22.03671 -96.99594 34008 ft 487 kts 177°
2026-04-21 23:46 21.96966 -96.98673 34007 ft 488 kts 177°
2026-04-21 23:47 21.90206 -96.97745 34007 ft 486 kts 177°
2026-04-21 23:47 21.83511 -96.96826 34009 ft 484 kts 177°
2026-04-21 23:48 21.76797 -96.95908 34004 ft 486 kts 176°
2026-04-21 23:48 21.70067 -96.94984 34009 ft 486 kts 177°
2026-04-21 23:49 21.63378 -96.94068 34007 ft 486 kts 177°
2026-04-21 23:49 21.56662 -96.93149 34008 ft 485 kts 176°
2026-04-21 23:50 21.49964 -96.92233 34010 ft 485 kts 177°
2026-04-21 23:50 21.43229 -96.91316 34008 ft 484 kts 176°
2026-04-21 23:51 21.36558 -96.90410 34008 ft 485 kts 176°
2026-04-21 23:51 21.29871 -96.89501 34007 ft 484 kts 176°
2026-04-21 23:52 21.23181 -96.88593 34008 ft 484 kts 176°
2026-04-21 23:52 21.16462 -96.87682 34008 ft 485 kts 176°
2026-04-21 23:53 21.09762 -96.86774 34011 ft 484 kts 176°
2026-04-21 23:53 21.03144 -96.85876 34004 ft 472 kts 176°
2026-04-21 23:54 20.96611 -96.84995 33400 ft 477 kts 176°
2026-04-21 23:54 20.93343 -96.84553 32883 ft 475 kts 176°
2026-04-21 23:54 20.90052 -96.84108 32318 ft 474 kts 176°
2026-04-21 23:54 20.86764 -96.83664 31733 ft 476 kts 176°
2026-04-21 23:55 20.83427 -96.83215 31100 ft 483 kts 176°
2026-04-21 23:55 20.80094 -96.82766 30431 ft 489 kts 175°
2026-04-21 23:55 20.76665 -96.82304 29860 ft 491 kts 175°
2026-04-21 23:55 20.73281 -96.81847 29370 ft 492 kts 175°
2026-04-21 23:56 20.69872 -96.81384 28852 ft 496 kts 175°
2026-04-21 23:56 20.66427 -96.80916 28348 ft 494 kts 175°
2026-04-21 23:56 20.63070 -96.80460 27764 ft 492 kts 175°
2026-04-21 23:56 20.59652 -96.80000 27254 ft 485 kts 175°
2026-04-21 23:57 20.56322 -96.79550 26762 ft 478 kts 174°
2026-04-21 23:57 20.53044 -96.79109 26282 ft 475 kts 174°
2026-04-21 23:57 20.49765 -96.78668 25804 ft 474 kts 174°
2026-04-21 23:57 20.46509 -96.78231 25324 ft 471 kts 174°
2026-04-21 23:58 20.43256 -96.77792 24842 ft 467 kts 174°
2026-04-21 23:58 20.40025 -96.77359 24363 ft 463 kts 174°
2026-04-21 23:58 20.36862 -96.76934 23894 ft 458 kts 174°
2026-04-21 23:58 20.33725 -96.76512 23427 ft 454 kts 174°
2026-04-21 23:59 20.30565 -96.76088 22959 ft 452 kts 174°
2026-04-21 23:59 20.27441 -96.75669 22495 ft 450 kts 174°
2026-04-21 23:59 20.24360 -96.75256 22036 ft 446 kts 174°
2026-04-21 23:59 20.21275 -96.74797 21565 ft 443 kts 169°
2026-04-22 00:00 20.18329 -96.73914 21114 ft 441 kts 159°
2026-04-22 00:00 20.15554 -96.72562 20723 ft 439 kts 154°
2026-04-22 00:00 20.12814 -96.71138 20321 ft 439 kts 154°
2026-04-22 00:00 20.10073 -96.69688 19887 ft 438 kts 154°
2026-04-22 00:01 20.07357 -96.68249 19432 ft 435 kts 153°
2026-04-22 00:01 20.04644 -96.66804 18990 ft 429 kts 154°
2026-04-22 00:01 20.02000 -96.65395 18647 ft 422 kts 154°
2026-04-22 00:01 19.99413 -96.64016 18530 ft 412 kts 153°
2026-04-22 00:02 19.96869 -96.62659 18487 ft 394 kts 153°
2026-04-22 00:02 19.94503 -96.61397 18452 ft 373 kts 153°
2026-04-22 00:02 19.92236 -96.60188 18420 ft 353 kts 153°
2026-04-22 00:02 19.90080 -96.59041 18417 ft 343 kts 154°
2026-04-22 00:03 19.87824 -96.58148 18248 ft 345 kts 165°
2026-04-22 00:03 19.85499 -96.57443 17926 ft 353 kts 164°
2026-04-22 00:03 19.83133 -96.56715 17566 ft 352 kts 165°
2026-04-22 00:03 19.80792 -96.56003 17179 ft 350 kts 165°
2026-04-22 00:04 19.78449 -96.55293 16826 ft 348 kts 164°
2026-04-22 00:04 19.76110 -96.54584 16451 ft 346 kts 164°
2026-04-22 00:04 19.73799 -96.53886 16070 ft 343 kts 164°
2026-04-22 00:04 19.71505 -96.53194 15706 ft 341 kts 164°
2026-04-22 00:05 19.69247 -96.52512 15340 ft 339 kts 164°
2026-04-22 00:05 19.66980 -96.51828 14993 ft 336 kts 164°
2026-04-22 00:05 19.64738 -96.51152 14644 ft 334 kts 164°
2026-04-22 00:05 19.62483 -96.50472 14286 ft 332 kts 164°
2026-04-22 00:06 19.60279 -96.49807 13940 ft 329 kts 164°
2026-04-22 00:06 19.58085 -96.49146 13613 ft 327 kts 164°
2026-04-22 00:06 19.55888 -96.48484 13263 ft 325 kts 164°
2026-04-22 00:06 19.53740 -96.47838 12946 ft 322 kts 163°
2026-04-22 00:07 19.51576 -96.47186 12625 ft 319 kts 163°
2026-04-22 00:07 19.49457 -96.46548 12319 ft 317 kts 163°
2026-04-22 00:07 19.47342 -96.45912 12017 ft 315 kts 163°
2026-04-22 00:07 19.45219 -96.45273 11704 ft 313 kts 163°
2026-04-22 00:08 19.43146 -96.44649 11401 ft 313 kts 163°
2026-04-22 00:08 19.41047 -96.44019 11083 ft 312 kts 163°
2026-04-22 00:08 19.38954 -96.43389 10742 ft 311 kts 163°
2026-04-22 00:08 19.36861 -96.42760 10398 ft 310 kts 163°
2026-04-22 00:09 19.34776 -96.42133 9994 ft 307 kts 163°
2026-04-22 00:09 19.32785 -96.41536 9981 ft 287 kts 163°
2026-04-22 00:09 19.30842 -96.40952 9715 ft 296 kts 163°
2026-04-22 00:09 19.28833 -96.40350 9361 ft 299 kts 163°
2026-04-22 00:10 19.26842 -96.39753 9013 ft 299 kts 163°
2026-04-22 00:10 19.24816 -96.39146 8597 ft 301 kts 163°
2026-04-22 00:10 19.22807 -96.38543 8104 ft 297 kts 163°
2026-04-22 00:10 19.20867 -96.37962 7749 ft 286 kts 163°
2026-04-22 00:11 19.18974 -96.37395 7641 ft 275 kts 163°
2026-04-22 00:11 19.17128 -96.36842 7302 ft 280 kts 163°
2026-04-22 00:11 19.15266 -96.36285 7188 ft 271 kts 163°
2026-04-22 00:11 19.13436 -96.35736 6875 ft 278 kts 163°
2026-04-22 00:12 19.11570 -96.35177 6418 ft 283 kts 163°
2026-04-22 00:12 19.09636 -96.34598 5932 ft 288 kts 163°
2026-04-22 00:12 19.07683 -96.34014 5482 ft 290 kts 163°
2026-04-22 00:12 19.05766 -96.33440 5309 ft 282 kts 163°
2026-04-22 00:13 19.03912 -96.32886 5122 ft 274 kts 163°
2026-04-22 00:13 19.02101 -96.32345 4900 ft 261 kts 163°
2026-04-22 00:13 19.00402 -96.31837 4720 ft 247 kts 162°
2026-04-22 00:13 18.98930 -96.31034 4546 ft 232 kts 133°
2026-04-22 00:14 18.98107 -96.29614 4326 ft 227 kts 107°
2026-04-22 00:14 18.97664 -96.27984 3892 ft 236 kts 104°
2026-04-22 00:14 18.97251 -96.26274 3436 ft 244 kts 102°
2026-04-22 00:14 18.97177 -96.24580 3434 ft 224 kts 76°
2026-04-22 00:15 18.97899 -96.23234 3383 ft 203 kts 39°
2026-04-22 00:15 18.99078 -96.22559 3407 ft 181 kts 23°
2026-04-22 00:15 19.00198 -96.22115 3357 ft 159 kts 20°
2026-04-22 00:15 19.01229 -96.21764 3026 ft 157 kts 18°
2026-04-22 00:16 19.02286 -96.21456 2652 ft 155 kts 17°
2026-04-22 00:16 19.03295 -96.21192 2474 ft 141 kts 15°
2026-04-22 00:16 19.04252 -96.20957 2515 ft 144 kts 15°
2026-04-22 00:16 19.05280 -96.20716 2529 ft 154 kts 14°
2026-04-22 00:17 19.06338 -96.20451 2301 ft 157 kts 17°
2026-04-22 00:17 19.07422 -96.20206 1791 ft 164 kts 12°
2026-04-22 00:17 19.08562 -96.20016 1281 ft 166 kts 12°
2026-04-22 00:17 19.09676 -96.19804 862 ft 162 kts 14°
2026-04-22 00:18 19.10770 -96.19563 549 ft 158 kts 14°
2026-04-22 00:18 19.11840 -96.19316 310 ft 154 kts 14°
2026-04-22 00:18 19.12872 -96.19102 145 ft 149 kts 15°
2026-04-22 00:18 19.13837 -96.18893 101 ft 134 kts 11°
2026-04-22 00:19 19.14842 -96.18678 188 ft 159 kts 17°
2026-04-22 00:19 19.15946 -96.18396 1112 ft 165 kts 16°
2026-04-22 00:19 19.17058 -96.18075 1886 ft 167 kts 29°
2026-04-22 00:19 19.17860 -96.17127 2032 ft 197 kts 71°
2026-04-22 00:20 19.17934 -96.15597 2546 ft 228 kts 109°
2026-04-22 00:20 19.16951 -96.14275 3370 ft 246 kts 146°
2026-04-22 00:20 19.15328 -96.13569 4102 ft 254 kts 163°
2026-04-22 00:20 19.13596 -96.13118 4381 ft 262 kts 167°
2026-04-22 00:21 19.11729 -96.12643 4124 ft 291 kts 163°
2026-04-22 00:21 19.09698 -96.12099 3737 ft 299 kts 166°
2026-04-22 00:21 19.07619 -96.11680 3342 ft 315 kts 171°
2026-04-22 00:21 19.05434 -96.11742 3506 ft 311 kts 189°
2026-04-22 00:22 19.03343 -96.12154 3557 ft 296 kts 190°
2026-04-22 00:22 19.01330 -96.12574 3222 ft 288 kts 190°
2026-04-22 00:22 18.99381 -96.13015 3044 ft 296 kts 192°
2026-04-22 00:22 18.97337 -96.13562 2870 ft 295 kts 194°
2026-04-22 00:23 18.95447 -96.14094 3152 ft 265 kts 194°
2026-04-22 00:23 18.93747 -96.14558 3135 ft 248 kts 193°
2026-04-22 00:23 18.92238 -96.15278 2922 ft 227 kts 219°
2026-04-22 00:23 18.91310 -96.16550 2589 ft 217 kts 251°
2026-04-22 00:24 18.91342 -96.18044 2261 ft 198 kts 303°
2026-04-22 00:24 18.92223 -96.19023 2089 ft 173 kts 332°
2026-04-22 00:24 18.93322 -96.19318 1844 ft 168 kts
2026-04-22 00:24 18.94513 -96.19023 1726 ft 169 kts 19°
2026-04-22 00:25 18.95590 -96.18751 1623 ft 155 kts
2026-04-22 00:25 18.96675 -96.18776 1272 ft 163 kts 358°
2026-04-22 00:25 18.97838 -96.18877 945 ft 168 kts 359°
2026-04-22 00:25 18.99033 -96.18911 810 ft 172 kts
2026-04-22 00:26 19.00199 -96.18923 590 ft 169 kts
2026-04-22 00:26 19.01450 -96.18889 559 ft 184 kts
2026-04-22 00:26 19.02755 -96.18893 659 ft 185 kts
2026-04-22 00:26 19.04039 -96.18847 917 ft 183 kts
2026-04-22 00:27 19.05255 -96.18679 1299 ft 168 kts 12°
2026-04-22 00:27 19.06423 -96.18628 1501 ft 166 kts
2026-04-22 00:27 19.07582 -96.18679 1619 ft 162 kts
2026-04-22 00:27 19.08716 -96.18875 1173 ft 172 kts 349°
2026-04-22 00:28 19.09878 -96.19183 831 ft 168 kts 350°
2026-04-22 00:28 19.11017 -96.19325 568 ft 163 kts
2026-04-22 00:28 19.12131 -96.19235 300 ft 157 kts 12°
2026-04-22 00:28 19.13198 -96.19032 139 ft 148 kts 15°
2026-04-22 00:29 19.14149 -96.18827 97 ft 121 kts 13°
2026-04-22 00:29 19.14675 -96.18708 91 ft 51 kts 12°
2026-04-22 00:29 19.14843 -96.18675 88 ft 10 kts
2026-04-22 00:29 19.14916 -96.18662 88 ft 10 kts 10°
2026-04-22 00:30 19.14954 -96.18618 88 ft 9 kts 91°
2026-04-22 00:30 19.14907 -96.18570 88 ft 13 kts 167°
2026-04-22 00:30 19.14803 -96.18554 88 ft 15 kts 172°
2026-04-22 00:30 19.14698 -96.18538 90 ft 14 kts 173°
2026-04-22 00:31 19.14598 -96.18547 91 ft 16 kts 184°
2026-04-22 00:31 19.14465 -96.18552 92 ft 22 kts 191°
2026-04-22 00:31 19.14343 -96.18524 94 ft 13 kts 118°
2026-04-22 00:31 19.14307 -96.18501 94 ft 8 kts 164°
2026-04-22 00:32 19.14274 -96.18453 93 ft 9 kts 105°
2026-04-22 00:32 19.14268 -96.18428 93 ft 2 kts 104°
2026-04-22 00:32 19.14267 -96.18426 92 ft 0 kts 104°